User: anonymous   Login
Location: Janeiro
(34.9957°N, 76.7652°W)
Time: 00:22:52
(UTC+00:00)
Language:

Cosmos 1461 - Orbit

View from above orbital plane
View from above orbital plane
View from above satellite
View from above satellite

Ground track
Ground track

The orbit data is extracted from the following two-line orbital elements,

1 14064U 83044A   20047.57647301 +.00000097 +00000-0 +23173-4 0  9996
2 14064 065.0011 147.4161 0096840 008.4819 351.7904 14.94605448868939
Epoch (UTC): 16 February 2020 13:50:07
Eccentricity: 0.0096840
inclination: 65.0011°
perigee height: 516 km
apogee height: 651 km
right ascension of ascending node: 147.4161°
argument of perigee: 8.4819°
revolutions per day: 14.94605448
mean anomaly at epoch: 351.7904°
orbit number at epoch: 86893

The dashed part of the orbit path shows where the satellite is in the earth's shadow,  

DLR